Location: Black Kettle National Grasslands
(35.7000°N, 99.8000°W)
Time: 00:35:33
(UTC-05:00)

Hubble Space Telescope - Visible Passes

Search period start: 22 September 2019 00:00
Search period end: 02 October 2019 00:00
Orbit: 536 x 540 km, 28.5° (Epoch: 21 September)

Date Brightness Start Highest point End Pass type
(mag) Time Alt. Az. Time Alt. Az. Time Alt. Az.
22 Sep 3.0 05:37:40 15° SSE 05:37:40 15° SSE 05:38:50 10° SSE visible
29 Sep 3.3 21:25:09 10° SSW 21:25:42 12° SSW 21:25:42 12° SSW visible
30 Sep 2.8 21:14:14 10° SW 21:15:55 17° SSW 21:15:55 17° SSW visible
01 Oct 2.4 21:03:25 10° SW 21:06:04 22° S 21:06:04 22° S visible
